Tracking 31027 objects as of 19-Jul-2025
HD Live streaming from Space Station
objects crossing your sky now

STARLINK-30852

Track STARLINK-30852 now!
10-day predictions
STARLINK-30852 is classified as:


NORAD ID: 58373
Int'l Code: 2023-177Y
Perigee: 565.3 km
Apogee: 567.1 km
Inclination: 43.0 °
Period: 95.8 minutes
Semi major axis: 6937 km
RCS: Unknown
Launch date: November 18, 2023
Source: United States (US)
Launch site: AIR FORCE EASTERN TEST RANGE (AFETR)
Your satellite tracking list
STARLINK-31611
Track 1 satellite(s)




NASA's NSSDC Master Catalog

Two Line Element Set (TLE):
1 58373U 23177Y   25199.43023126  .00000450  00000-0  48389-4 0  9998
2 58373  43.0027 184.7492 0001260 297.2285  62.8429 15.02540711 92977
Source of the keplerian elements: AFSPC